This is the latest recevied weather packets stored in our database for station/object N5JXS. If no packets are shown the sender has not sent any weather packets the latest 10 day(s).
| Time | Temp. | Humidity | Pressure | Rain* | Wind** | Luminosity | Snow |
|---|---|---|---|---|---|---|---|
| 1778028381 | 0° C | 98% | 1014.3 hPa | 0 mm | - | 8 W/m² | - |
| 1778028079 | 0° C | 98% | 1014.5 hPa | 0 mm | - | 6 W/m² | - |
| 1778027775 | 0° C | 98% | 1014.4 hPa | 0 mm | - | 8 W/m² | - |
| 1778027471 | 0° C | 98% | 1014.4 hPa | 0 mm | - | 10 W/m² | - |
| 1778027167 | 0° C | 98% | 1014.5 hPa | 0 mm | - | 10 W/m² | - |
| 1778026863 | 0° C | 98% | 1014.5 hPa | 0 mm | - | 9 W/m² | - |
| 1778026559 | 0° C | 98% | 1014.4 hPa | 0 mm | - | 7 W/m² | - |
| 1778026256 | 0.56° C | 98% | 1014.5 hPa | 0 mm | - | 9 W/m² | - |
| 1778025954 | 0.56° C | 98% | 1014.1 hPa | 0 mm | - | 10 W/m² | - |
| 1778025651 | 0.56° C | 98% | 1014.3 hPa | 0 mm | - | 15 W/m² | - |
| 1778025349 | 0.56° C | 98% | 1014 hPa | 0 mm | - | 12 W/m² | - |
| 1778025046 | 0.56° C | 98% | 1014 hPa | 1.78 mm | - | 12 W/m² | - |
| 1778024743 | 0.56° C | 98% | 1014 hPa | 1.78 mm | - | 12 W/m² | - |
| 1778024439 | 0.56° C | 98% | 1013.9 hPa | 0 mm | - | 16 W/m² | - |
| 1778024137 | 0.56° C | 98% | 1013.9 hPa | 0 mm | - | 12 W/m² | - |
| 1778023834 | 0.56° C | 98% | 1013.9 hPa | 1.27 mm | - | 16 W/m² | - |
| 1778023532 | 0.56° C | 98% | 1013.8 hPa | 1.27 mm | - | 20 W/m² | - |
| 1778023229 | 0.56° C | 98% | 1013.6 hPa | 0 mm | - | 21 W/m² | - |
| 1778022926 | 0.56° C | 98% | 1013.6 hPa | 1.78 mm | - | 23 W/m² | - |
| 1778022625 | 0.56° C | 98% | 1013.9 hPa | 1.78 mm | - | 22 W/m² | - |
| 1778022322 | 0.56° C | 98% | 1013.6 hPa | 0 mm | - | 23 W/m² | - |
| 1778022018 | 0.56° C | 98% | 1013.4 hPa | 0 mm | - | 27 W/m² | - |
| 1778021715 | 0.56° C | 98% | 1013.3 hPa | 1.27 mm | - | 26 W/m² | - |
| 1778021411 | 0.56° C | 98% | 1013.1 hPa | 1.27 mm | - | 26 W/m² | - |
| 1778021108 | 0.56° C | 98% | 1013.1 hPa | 0 mm | - | 34 W/m² | - |
* Rain latest hour (hover to see other rain measurements)
** Current wind speed in m/s (hover to see current wind gust speed)